,,,PA_Meas_PMT16A,,PR_Meas_QMR101_102,,RH_Meas_QMH101,,SR_Meas_QMS101,,TA_Meas_QMH101,,GenWind,,GenWind,
date,time,status,PA,status,PR,status,RH,status,SR,status,TA,status,DirAvg,status,SpdAvg,
2010-06-17, 00:00:04,VALID,1004.21,VALID,0,VALID,84.6195,VALID,0,VALID,26.0985,VALID,4,VALID,1.37969,
2010-06-17, 00:01:04,VALID,1004.26,VALID,0,VALID,84.7492,VALID,0,VALID,26.1375,VALID,3,VALID,1.09922,
2010-06-17, 00:02:04,VALID,1004.29,VALID,0,VALID,84.9781,VALID,0,VALID,26.116,VALID,355,VALID,1.04648,
2010-06-17, 00:03:04,VALID,1004.31,VALID,0,VALID,85.2375,VALID,0,VALID,26.116,VALID,344,VALID,0.871484,
2010-06-17, 00:04:04,VALID,1004.3,VALID,0,VALID,85.3748,VALID,0,VALID,26.1375,VALID,338,VALID,0.720703,
2010-06-17, 00:05:04,VALID,1004.38,VALID,0,VALID,85.4587,VALID,0,VALID,26.118,VALID,334,VALID,0.140625,
2010-06-17, 00:06:04,VALID,1004.45,VALID,0,VALID,85.6571,VALID,0,VALID,26.0985,VALID,347,VALID,0.132422,
2010-06-17, 00:07:04,VALID,1004.52,VALID,0,VALID,85.9241,VALID,0,VALID,26.0596,VALID,347,VALID,0,
2010-06-17, 00:08:04,VALID,1004.61,VALID,0,VALID,86.2674,VALID,0,VALID,26.0401,VALID,347,VALID,0.294922,
2010-06-17, 00:09:05,VALID,1004.66,VALID,0,VALID,86.4276,VALID,0,VALID,25.9992,VALID,347,VALID,0.204688,
2010-06-17, 00:10:04,VALID,1004.7,VALID,0,VALID,86.5344,VALID,0,VALID,25.9992,VALID,347,VALID,0,
2010-06-17, 00:11:04,VALID,1004.72,VALID,0,VALID,86.6717,VALID,0,VALID,26.0012,VALID,347,VALID,0,
2010-06-17, 00:12:04,VALID,1004.7,VALID,0,VALID,86.8319,VALID,0,VALID,25.9408,VALID,347,VALID,0,
2010-06-17, 00:13:05,VALID,1004.7,VALID,0,VALID,86.9158,VALID,0,VALID,25.9213,VALID,347,VALID,0,
2010-06-17, 00:14:05,VALID,1004.7,VALID,0,VALID,86.9769,VALID,0,VALID,25.8843,VALID,347,VALID,0,
2010-06-17, 00:15:05,VALID,1004.68,VALID,0,VALID,87.2286,VALID,0,VALID,25.8259,VALID,347,VALID,0,
2010-06-17, 00:16:05,VALID,1004.63,VALID,0,VALID,87.5643,VALID,0,VALID,25.7674,VALID,347,VALID,0.582422,
2010-06-17, 00:17:05,VALID,1004.58,VALID,0,VALID,88.0068,VALID,0,VALID,25.67,VALID,347,VALID,0.517578,
2010-06-17, 00:18:05,VALID,1004.55,VALID,0,VALID,88.3806,VALID,0,VALID,25.5727,VALID,347,VALID,0.539453,
2010-06-17, 00:19:05,VALID,1004.53,VALID,0,VALID,88.7773,VALID,0,VALID,25.4558,VALID,347,VALID,0.609375,
2010-06-17, 00:20:05,VALID,1004.53,VALID,0,VALID,89.3342,VALID,0,VALID,25.3176,VALID,347,VALID,0.719141,
2010-06-17, 00:21:05,VALID,1004.55,VALID,0,VALID,90.4556,VALID,0,VALID,25.2611,VALID,347,VALID,0.542969,
2010-06-17, 00:22:05,VALID,1004.57,VALID,0,VALID,93.9268,VALID,0,VALID,25.1637,VALID,347,VALID,0.421484,
2010-06-17, 00:23:05,VALID,1004.57,VALID,0,VALID,95.5212,VALID,0,VALID,25.1053,VALID,347,VALID,0,
2010-06-17, 00:24:05,VALID,1004.58,VALID,0,VALID,96.3451,VALID,0,VALID,25.045,VALID,347,VALID,0,
2010-06-17, 00:25:05,VALID,1004.63,VALID,0,VALID,96.7571,VALID,0,VALID,25.0274,VALID,347,VALID,0,
2010-06-17, 00:26:05,VALID,1004.67,VALID,0,VALID,97.0241,VALID,0,VALID,24.9671,VALID,347,VALID,0,
2010-06-17, 00:27:05,VALID,1004.67,VALID,0,VALID,97.3064,VALID,0,VALID,24.9495,VALID,347,VALID,0,
2010-06-17, 00:28:05,VALID,1004.68,VALID,0,VALID,97.5276,VALID,0,VALID,24.9087,VALID,347,VALID,0,
2010-06-17, 00:29:05,VALID,1004.67,VALID,0,VALID,97.7031,VALID,0,VALID,24.93,VALID,347,VALID,0,
2010-06-17, 00:30:05,VALID,1004.68,VALID,0,VALID,97.8404,VALID,0,VALID,24.8911,VALID,347,VALID,0,
2010-06-17, 00:31:05,VALID,1004.63,VALID,0,VALID,97.9625,VALID,0,VALID,24.8716,VALID,347,VALID,0,
2010-06-17, 00:32:05,VALID,1004.61,VALID,0,VALID,98.0769,VALID,0,VALID,24.8911,VALID,347,VALID,0.605078,
2010-06-17, 00:33:05,VALID,1004.58,VALID,0,VALID,98.199,VALID,0,VALID,24.8522,VALID,347,VALID,0.119141,
2010-06-17, 00:34:05,VALID,1004.56,VALID,0,VALID,98.2752,VALID,0,VALID,24.8308,VALID,349,VALID,0.755859,
2010-06-17, 00:35:05,VALID,1004.52,VALID,0,VALID,98.3592,VALID,0,VALID,24.8522,VALID,22,VALID,0.857031,
2010-06-17, 00:36:05,VALID,1004.48,VALID,0,VALID,98.4431,VALID,0,VALID,24.8308,VALID,11,VALID,0.678125,
2010-06-17, 00:37:05,VALID,1004.47,VALID,0,VALID,98.5117,VALID,0,VALID,24.8716,VALID,11,VALID,0.669531,
2010-06-17, 00:38:05,VALID,1004.43,VALID,0,VALID,98.5499,VALID,0,VALID,24.8503,VALID,11,VALID,0.699219,
2010-06-17, 00:39:05,VALID,1004.45,VALID,0,VALID,98.588,VALID,0,VALID,24.8503,VALID,11,VALID,0.582031,
2010-06-17, 00:40:05,VALID,1004.44,VALID,0,VALID,98.6109,VALID,0,VALID,24.8503,VALID,11,VALID,0.425,
2010-06-17, 00:41:05,VALID,1004.45,VALID,0,VALID,98.6491,VALID,0,VALID,24.8503,VALID,11,VALID,0.474219,
2010-06-17, 00:42:05,VALID,1004.44,VALID,0,VALID,98.6567,VALID,0,VALID,24.8308,VALID,11,VALID,0.322656,
2010-06-17, 00:43:05,VALID,1004.42,VALID,0,VALID,98.6719,VALID,0,VALID,24.93,VALID,11,VALID,0.590625,
2010-06-17, 00:44:05,VALID,1004.41,VALID,0,VALID,98.733,VALID,0,VALID,25.006,VALID,20,VALID,0.230469,
2010-06-17, 00:45:05,VALID,1004.42,VALID,0,VALID,98.8321,VALID,0,VALID,25.0858,VALID,20,VALID,0.305859,
2010-06-17, 00:46:05,VALID,1004.45,VALID,0,VALID,98.8856,VALID,0,VALID,25.0858,VALID,20,VALID,0.325391,
2010-06-17, 00:47:05,VALID,1004.42,VALID,0,VALID,98.8627,VALID,0,VALID,25.1053,VALID,20,VALID,0.352344,
2010-06-17, 00:48:05,VALID,1004.41,VALID,0,VALID,98.8627,VALID,0,VALID,25.1053,VALID,20,VALID,0.0109375,
2010-06-17, 00:49:05,VALID,1004.39,VALID,0,VALID,98.855,VALID,0,VALID,25.1248,VALID,25,VALID,0.241406,
2010-06-17, 00:50:05,VALID,1004.38,VALID,0,VALID,98.8474,VALID,0,VALID,25.1229,VALID,25,VALID,0.219141,
2010-06-17, 00:51:05,VALID,1004.35,VALID,0,VALID,98.8093,VALID,0,VALID,25.1637,VALID,25,VALID,0.319922,
2010-06-17, 00:52:05,VALID,1004.31,VALID,0,VALID,98.7482,VALID,0,VALID,25.2592,VALID,326,VALID,0.571484,
2010-06-17, 00:53:05,VALID,1004.3,VALID,0,VALID,98.8398,VALID,0,VALID,25.3955,VALID,344,VALID,0.41875,
2010-06-17, 00:54:05,VALID,1004.26,VALID,0,VALID,98.8856,VALID,0,VALID,25.5318,VALID,315,VALID,0.490625,
2010-06-17, 00:55:05,VALID,1004.27,VALID,0,VALID,98.8703,VALID,0,VALID,25.6116,VALID,315,VALID,0.466797,
2010-06-17, 00:56:05,VALID,1004.25,VALID,0,VALID,98.5575,VALID,0,VALID,25.6506,VALID,315,VALID,0.373828,
2010-06-17, 00:57:05,VALID,1004.26,VALID,0,VALID,98.2905,VALID,0,VALID,25.6681,VALID,360,VALID,0.691016,
2010-06-17, 00:58:05,VALID,1004.36,VALID,0,VALID,97.8785,VALID,0,VALID,25.709,VALID,1,VALID,0.539453,
2010-06-17, 00:59:05,VALID,1004.35,VALID,0,VALID,97.8328,VALID,0,VALID,25.7655,VALID,360,VALID,0.173047,
2010-06-17, 01:00:05,VALID,1004.39,VALID,0,VALID,97.726,VALID,0,VALID,25.8044,VALID,360,VALID,0.224609,
2010-06-17, 01:01:05,VALID,1004.42,VALID,0,VALID,97.4513,VALID,0,VALID,25.8434,VALID,360,VALID,0.314063,
2010-06-17, 01:02:05,VALID,1004.42,VALID,0,VALID,97.2225,VALID,0,VALID,25.8843,VALID,360,VALID,0.216797,
2010-06-17, 01:03:05,VALID,1004.44,VALID,0,VALID,97.0699,VALID,0,VALID,25.8843,VALID,360,VALID,0.350391,
2010-06-17, 01:04:05,VALID,1004.44,VALID,0,VALID,96.8715,VALID,0,VALID,25.8648,VALID,360,VALID,0.261328,
2010-06-17, 01:05:05,VALID,1004.45,VALID,0,VALID,96.8944,VALID,0,VALID,25.8648,VALID,360,VALID,0.433203,
2010-06-17, 01:06:05,VALID,1004.45,VALID,0,VALID,96.9326,VALID,0,VALID,25.8648,VALID,358,VALID,0.867969,
2010-06-17, 01:07:05,VALID,1004.43,VALID,0,VALID,97.0775,VALID,0,VALID,25.8648,VALID,348,VALID,0.548437,
2010-06-17, 01:08:05,VALID,1004.4,VALID,0,VALID,96.9249,VALID,0,VALID,25.9038,VALID,348,VALID,0.534766,
2010-06-17, 01:09:05,VALID,1004.37,VALID,0,VALID,96.7037,VALID,0,VALID,25.8453,VALID,348,VALID,0.364453,
2010-06-17, 01:10:05,VALID,1004.37,VALID,0,VALID,96.6732,VALID,0,VALID,25.8064,VALID,348,VALID,0.283594,
2010-06-17, 01:11:05,VALID,1004.36,VALID,0,VALID,96.8792,VALID,0,VALID,25.7674,VALID,348,VALID,0.162891,
2010-06-17, 01:12:05,VALID,1004.31,VALID,0,VALID,96.9097,VALID,0,VALID,25.709,VALID,1,VALID,0.434375,
2010-06-17, 01:13:05,VALID,1004.28,VALID,0,VALID,97.0622,VALID,0,VALID,25.6506,VALID,37,VALID,0.703906,
2010-06-17, 01:14:05,VALID,1004.24,VALID,0,VALID,97.2835,VALID,0,VALID,25.5921,VALID,39,VALID,0.507422,
2010-06-17, 01:15:05,VALID,1004.17,VALID,0,VALID,97.6039,VALID,0,VALID,25.5921,VALID,44,VALID,0.596094,
2010-06-17, 01:16:05,VALID,1004.11,VALID,0,VALID,97.8557,VALID,0,VALID,25.6311,VALID,33,VALID,0.521484,
2010-06-17, 01:17:05,VALID,1004.08,VALID,0,VALID,97.8785,VALID,0,VALID,25.6506,VALID,34,VALID,0.266797,
2010-06-17, 01:18:05,VALID,1004.04,VALID,0,VALID,97.8175,VALID,0,VALID,25.6506,VALID,34,VALID,0.490234,
2010-06-17, 01:19:05,VALID,1004.07,VALID,0,VALID,97.9014,VALID,0,VALID,25.6895,VALID,34,VALID,0.417188,
2010-06-17, 01:20:05,VALID,1004.06,VALID,0,VALID,97.9319,VALID,0,VALID,25.709,VALID,34,VALID,0.446875,
2010-06-17, 01:21:05,VALID,1004.08,VALID,0,VALID,98.0082,VALID,0,VALID,25.746,VALID,19,VALID,0.434375,
2010-06-17, 01:22:05,VALID,1004.07,VALID,0,VALID,97.9243,VALID,0,VALID,25.7674,VALID,10,VALID,0.175,
2010-06-17, 01:23:05,VALID,1004.1,VALID,0,VALID,97.726,VALID,0,VALID,25.7655,VALID,8,VALID,0.0527344,
2010-06-17, 01:24:05,VALID,1004.16,VALID,0,VALID,97.7336,VALID,0,VALID,25.8453,VALID,74,VALID,0.256641,
2010-06-17, 01:25:05,VALID,1004.19,VALID,0,VALID,97.6954,VALID,0,VALID,25.9447,VALID,9,VALID,1.05586,
2010-06-17, 01:26:05,VALID,1004.19,VALID,0,VALID,97.4589,VALID,0,VALID,26.0596,VALID,359,VALID,0.680469,
2010-06-17, 01:27:05,VALID,1004.21,VALID,0,VALID,96.8563,VALID,0,VALID,26.118,VALID,359,VALID,0.670703,
2010-06-17, 01:28:05,VALID,1004.23,VALID,0,VALID,95.7424,VALID,0,VALID,26.1765,VALID,357,VALID,0.971094,
2010-06-17, 01:29:05,VALID,1004.22,VALID,0,VALID,93.9725,VALID,0,VALID,26.2349,VALID,2,VALID,0.538281,
2010-06-17, 01:30:05,VALID,1004.22,VALID,0,VALID,91.7831,VALID,0,VALID,26.2524,VALID,1,VALID,0.472266,
2010-06-17, 01:31:05,VALID,1004.23,VALID,0,VALID,91.5313,VALID,0,VALID,26.2544,VALID,1,VALID,0.383203,
2010-06-17, 01:32:05,VALID,1004.19,VALID,0,VALID,91.4245,VALID,0,VALID,26.2349,VALID,360,VALID,0.467578,
2010-06-17, 01:33:05,VALID,1004.19,VALID,0,VALID,91.4626,VALID,0,VALID,26.2349,VALID,360,VALID,0.699609,
2010-06-17, 01:34:05,VALID,1004.2,VALID,0,VALID,91.8212,VALID,0,VALID,26.2349,VALID,357,VALID,0.621094,
2010-06-17, 01:35:05,VALID,1004.2,VALID,0,VALID,91.4398,VALID,0,VALID,26.2349,VALID,356,VALID,0.403125,
2010-06-17, 01:36:05,VALID,1004.21,VALID,0,VALID,91.6686,VALID,0,VALID,26.1959,VALID,356,VALID,0.408203,
2010-06-17, 01:37:05,VALID,1004.22,VALID,0,VALID,92.5765,VALID,0,VALID,26.1979,VALID,356,VALID,0.490234,
2010-06-17, 01:38:05,VALID,1004.24,VALID,0,VALID,93.7361,VALID,0,VALID,26.157,VALID,356,VALID,0.208203,
2010-06-17, 01:39:05,VALID,1004.29,VALID,0,VALID,94.2243,VALID,0,VALID,26.1375,VALID,356,VALID,0.399609,
2010-06-17, 01:40:05,VALID,1004.31,VALID,0,VALID,94.7431,VALID,0,VALID,26.0985,VALID,356,VALID,0.317578,
2010-06-17, 01:41:05,VALID,1004.33,VALID,0,VALID,94.9796,VALID,0,VALID,26.0771,VALID,356,VALID,0.350781,
2010-06-17, 01:42:05,VALID,1004.38,VALID,0,VALID,95.0406,VALID,0,VALID,26.1005,VALID,356,VALID,0.420703,
2010-06-17, 01:43:05,VALID,1004.4,VALID,0,VALID,95.5899,VALID,0,VALID,26.0596,VALID,356,VALID,0.307422,
2010-06-17, 01:44:05,VALID,1004.43,VALID,0,VALID,95.5975,VALID,0,VALID,26.0791,VALID,356,VALID,0.0535156,
2010-06-17, 01:45:05,VALID,1004.39,VALID,0,VALID,95.4907,VALID,0,VALID,26.0381,VALID,356,VALID,0,
2010-06-17, 01:46:05,VALID,1004.43,VALID,0,VALID,95.6509,VALID,0,VALID,26.0596,VALID,356,VALID,0.190625,
2010-06-17, 01:47:05,VALID,1004.45,VALID,0,VALID,95.5212,VALID,0,VALID,26.081,VALID,356,VALID,0,
2010-06-17, 01:48:05,VALID,1004.48,VALID,0,VALID,95.5288,VALID,0,VALID,26.0791,VALID,356,VALID,0.144141,
2010-06-17, 01:49:05,VALID,1004.44,VALID,0,VALID,95.5365,VALID,0,VALID,26.0616,VALID,356,VALID,0,
2010-06-17, 01:50:05,VALID,1004.43,VALID,0,VALID,95.6356,VALID,0,VALID,26.0421,VALID,356,VALID,0,
2010-06-17, 01:51:05,VALID,1004.42,VALID,0,VALID,95.9408,VALID,0,VALID,25.9817,VALID,356,VALID,0,
2010-06-17, 01:52:05,VALID,1004.46,VALID,0,VALID,96.2154,VALID,0,VALID,25.9427,VALID,356,VALID,0,
2010-06-17, 01:53:05,VALID,1004.41,VALID,0,VALID,96.5282,VALID,0,VALID,25.9038,VALID,356,VALID,0,
2010-06-17, 01:54:05,VALID,1004.42,VALID,0,VALID,96.7876,VALID,0,VALID,25.8863,VALID,356,VALID,0,
2010-06-17, 01:55:05,VALID,1004.42,VALID,0,VALID,96.9936,VALID,0,VALID,25.8278,VALID,356,VALID,0,
2010-06-17, 01:56:05,VALID,1004.41,VALID,0,VALID,97.1385,VALID,0,VALID,25.7869,VALID,356,VALID,0,
2010-06-17, 01:57:05,VALID,1004.4,VALID,0,VALID,97.2987,VALID,0,VALID,25.7889,VALID,356,VALID,0,
2010-06-17, 01:58:05,VALID,1004.39,VALID,0,VALID,97.4513,VALID,0,VALID,25.748,VALID,356,VALID,0,
2010-06-17, 01:59:05,VALID,1004.39,VALID,0,VALID,97.5734,VALID,0,VALID,25.709,VALID,356,VALID,0,
2010-06-17, 02:00:05,VALID,1004.38,VALID,0,VALID,97.7107,VALID,0,VALID,25.67,VALID,356,VALID,0,
2010-06-17, 02:01:05,VALID,1004.39,VALID,0,VALID,97.8175,VALID,0,VALID,25.6292,VALID,356,VALID,0,
2010-06-17, 02:02:05,VALID,1004.39,VALID,0,VALID,97.8938,VALID,0.100563,VALID,25.6311,VALID,349,VALID,0,
2010-06-17, 02:03:05,VALID,1004.38,VALID,0,VALID,97.9548,VALID,0,VALID,25.5902,VALID,348,VALID,0,
2010-06-17, 02:04:05,VALID,1004.36,VALID,0,VALID,98.0082,VALID,0.100563,VALID,25.5513,VALID,347,VALID,0.5,
2010-06-17, 02:05:05,VALID,1004.37,VALID,0,VALID,98.0387,VALID,0.100563,VALID,25.5513,VALID,347,VALID,0.317578,
2010-06-17, 02:06:05,VALID,1004.35,VALID,0,VALID,98.0845,VALID,0,VALID,25.5532,VALID,344,VALID,0.541016,
2010-06-17, 02:07:05,VALID,1004.38,VALID,0,VALID,98.1227,VALID,0.100563,VALID,25.5318,VALID,344,VALID,0.425391,
2010-06-17, 02:08:05,VALID,1004.36,VALID,0,VALID,98.1074,VALID,0,VALID,25.5123,VALID,345,VALID,0.475391,
2010-06-17, 02:09:05,VALID,1004.31,VALID,0,VALID,98.1532,VALID,0,VALID,25.5337,VALID,110,VALID,0.397266,
2010-06-17, 02:10:05,VALID,1004.36,VALID,0,VALID,98.1608,VALID,0,VALID,25.5123,VALID,110,VALID,0.223047,
2010-06-17, 02:11:05,VALID,1004.39,VALID,0,VALID,98.1455,VALID,0,VALID,25.5123,VALID,108,VALID,0.374609,
2010-06-17, 02:12:05,VALID,1004.35,VALID,0,VALID,98.1227,VALID,0,VALID,25.5123,VALID,64,VALID,0.583594,
2010-06-17, 02:13:05,VALID,1004.34,VALID,0,VALID,98.1303,VALID,0,VALID,25.4734,VALID,37,VALID,0.468359,
2010-06-17, 02:14:05,VALID,1004.33,VALID,0,VALID,98.1684,VALID,0.100563,VALID,25.4344,VALID,36,VALID,0.634766,
2010-06-17, 02:15:05,VALID,1004.32,VALID,0,VALID,98.2676,VALID,0.100563,VALID,25.4149,VALID,34,VALID,0.603516,
2010-06-17, 02:16:05,VALID,1004.35,VALID,0,VALID,98.3592,VALID,0,VALID,25.4188,VALID,33,VALID,0.404687,
2010-06-17, 02:17:05,VALID,1004.37,VALID,0,VALID,98.4278,VALID,0,VALID,25.3584,VALID,33,VALID,0.335547,
2010-06-17, 02:18:05,VALID,1004.41,VALID,0,VALID,98.4965,VALID,0,VALID,25.3584,VALID,33,VALID,0.00117188,
2010-06-17, 02:19:05,VALID,1004.43,VALID,0,VALID,98.5575,VALID,0,VALID,25.339,VALID,33,VALID,0,
2010-06-17, 02:20:05,VALID,1004.45,VALID,0,VALID,98.6033,VALID,0,VALID,25.339,VALID,33,VALID,0,
2010-06-17, 02:21:05,VALID,1004.43,VALID,0,VALID,98.6338,VALID,0,VALID,25.3604,VALID,33,VALID,0,
2010-06-17, 02:22:05,VALID,1004.43,VALID,0,VALID,98.6719,VALID,0,VALID,25.339,VALID,209,VALID,0.898828,
2010-06-17, 02:23:05,VALID,1004.36,VALID,0,VALID,98.7025,VALID,0,VALID,25.339,VALID,199,VALID,0.322266,
2010-06-17, 02:24:05,VALID,1004.37,VALID,0,VALID,98.7101,VALID,0,VALID,25.3604,VALID,199,VALID,0.0832031,
2010-06-17, 02:25:05,VALID,1004.38,VALID,0,VALID,98.7482,VALID,0,VALID,25.3993,VALID,198,VALID,0.631641,
2010-06-17, 02:26:05,VALID,1004.39,VALID,0,VALID,98.7482,VALID,0,VALID,25.3974,VALID,198,VALID,0.653906,
2010-06-17, 02:27:05,VALID,1004.41,VALID,0,VALID,98.7635,VALID,0,VALID,25.3974,VALID,152,VALID,0.958594,
2010-06-17, 02:28:05,VALID,1004.4,VALID,0,VALID,98.7482,VALID,0,VALID,25.5746,VALID,166,VALID,2.34453,
2010-06-17, 02:29:05,VALID,1004.38,VALID,0,VALID,98.7787,VALID,0,VALID,25.6895,VALID,216,VALID,1.26016,
2010-06-17, 02:30:05,VALID,1004.39,VALID,0,VALID,98.7635,VALID,0,VALID,25.7869,VALID,229,VALID,0.978906,
2010-06-17, 02:31:05,VALID,1004.38,VALID,0,VALID,98.5728,VALID,0,VALID,25.9232,VALID,208,VALID,1.00508,
2010-06-17, 02:32:05,VALID,1004.35,VALID,0,VALID,98.2295,VALID,0.100563,VALID,26.0187,VALID,216,VALID,0.987891,
2010-06-17, 02:33:05,VALID,1004.32,VALID,0,VALID,97.7717,VALID,0.100563,VALID,26.116,VALID,190,VALID,0.573438,
2010-06-17, 02:34:05,VALID,1004.28,VALID,0,VALID,97.2759,VALID,0.100563,VALID,26.1745,VALID,145,VALID,0.672656,
2010-06-17, 02:35:05,VALID,1004.25,VALID,0,VALID,96.9936,VALID,0.100563,VALID,26.2134,VALID,137,VALID,0.684766,
2010-06-17, 02:36:05,VALID,1004.24,VALID,0,VALID,96.7495,VALID,0.100563,VALID,26.2134,VALID,116,VALID,0.851953,
2010-06-17, 02:37:05,VALID,1004.25,VALID,0,VALID,96.3985,VALID,0.100563,VALID,26.2329,VALID,116,VALID,0.504687,
2010-06-17, 02:38:05,VALID,1004.25,VALID,0,VALID,95.7882,VALID,0.100563,VALID,26.2349,VALID,117,VALID,0.286719,
2010-06-17, 02:39:05,VALID,1004.18,VALID,0,VALID,95.3839,VALID,0.100563,VALID,26.2329,VALID,117,VALID,0.00273437,
2010-06-17, 02:40:05,VALID,1004.17,VALID,0,VALID,95.3229,VALID,0,VALID,26.2329,VALID,117,VALID,0.266406,
2010-06-17, 02:41:05,VALID,1004.15,VALID,0,VALID,95.7196,VALID,0,VALID,26.2134,VALID,117,VALID,0.128125,
2010-06-17, 02:42:05,VALID,1004.14,VALID,0,VALID,96.1086,VALID,0,VALID,26.194,VALID,117,VALID,0.127344,
2010-06-17, 02:43:05,VALID,1004.16,VALID,0,VALID,96.2536,VALID,0.100563,VALID,26.1745,VALID,116,VALID,0.427734,
2010-06-17, 02:44:05,VALID,1004.17,VALID,0,VALID,96.4138,VALID,0,VALID,26.116,VALID,115,VALID,0.391016,
2010-06-17, 02:45:05,VALID,1004.16,VALID,0,VALID,96.574,VALID,0.100563,VALID,26.0966,VALID,115,VALID,0.200781,
2010-06-17, 02:46:05,VALID,1004.13,VALID,0,VALID,96.7189,VALID,0,VALID,26.0771,VALID,115,VALID,0.489062,
2010-06-17, 02:47:05,VALID,1004.18,VALID,0,VALID,96.8563,VALID,0,VALID,26.0401,VALID,105,VALID,0.647656,
2010-06-17, 02:48:05,VALID,1004.14,VALID,0,VALID,96.9783,VALID,0,VALID,25.9992,VALID,102,VALID,0.372656,
2010-06-17, 02:49:05,VALID,1004.09,VALID,0,VALID,97.0851,VALID,0,VALID,25.9992,VALID,102,VALID,0.119531,
2010-06-17, 02:50:05,VALID,1004.11,VALID,0,VALID,97.2072,VALID,0,VALID,25.9602,VALID,102,VALID,0.0519531,
2010-06-17, 02:51:04,VALID,1004.11,VALID,0,VALID,97.3216,VALID,0,VALID,25.9408,VALID,102,VALID,0.303906,
2010-06-17, 02:52:04,VALID,1004.1,VALID,0,VALID,97.4666,VALID,0,VALID,25.9408,VALID,102,VALID,0.106641,
2010-06-17, 02:53:04,VALID,1004.08,VALID,0,VALID,97.6115,VALID,0,VALID,25.9018,VALID,102,VALID,0.245703,
2010-06-17, 02:54:04,VALID,1004.1,VALID,0,VALID,97.642,VALID,0.100563,VALID,25.9213,VALID,102,VALID,0.296094,
2010-06-17, 02:55:04,VALID,1004.12,VALID,0,VALID,97.642,VALID,0.100563,VALID,25.9213,VALID,102,VALID,0.155078,
2010-06-17, 02:56:04,VALID,1004.06,VALID,0,VALID,97.6649,VALID,0,VALID,25.9213,VALID,102,VALID,0.253906,
2010-06-17, 02:57:04,VALID,1004.02,VALID,0,VALID,97.6878,VALID,0,VALID,25.9213,VALID,102,VALID,0.0902344,
2010-06-17, 02:58:04,VALID,1004.01,VALID,0,VALID,97.726,VALID,0,VALID,25.8823,VALID,102,VALID,0.188281,
2010-06-17, 02:59:04,VALID,1004.02,VALID,0,VALID,97.7488,VALID,0,VALID,25.8823,VALID,102,VALID,0.106641,
2010-06-17, 03:00:04,VALID,1004.04,VALID,0,VALID,97.7183,VALID,0,VALID,25.8629,VALID,102,VALID,0,
2010-06-17, 03:01:04,VALID,1004.03,VALID,0,VALID,97.7107,VALID,0,VALID,25.8434,VALID,102,VALID,0,
2010-06-17, 03:02:04,VALID,1003.97,VALID,0,VALID,97.7641,VALID,0,VALID,25.8648,VALID,102,VALID,0.260547,
2010-06-17, 03:03:04,VALID,1003.94,VALID,0,VALID,97.726,VALID,0.100563,VALID,25.8025,VALID,102,VALID,0.317578,
2010-06-17, 03:04:04,VALID,1003.91,VALID,0,VALID,97.581,VALID,0,VALID,25.8434,VALID,102,VALID,0.0878906,
2010-06-17, 03:05:04,VALID,1003.85,VALID,0,VALID,97.3369,VALID,0,VALID,25.8629,VALID,102,VALID,0.0339844,
2010-06-17, 03:06:04,VALID,1003.85,VALID,0,VALID,97.1919,VALID,0,VALID,25.8609,VALID,102,VALID,0,
2010-06-17, 03:07:04,VALID,1003.85,VALID,0,VALID,97.0317,VALID,0.100563,VALID,25.8629,VALID,102,VALID,0,
2010-06-17, 03:08:04,VALID,1003.89,VALID,0,VALID,96.9783,VALID,0,VALID,25.8434,VALID,102,VALID,0,
2010-06-17, 03:09:04,VALID,1003.92,VALID,0,VALID,97.0012,VALID,0,VALID,25.8434,VALID,102,VALID,0.162109,
2010-06-17, 03:10:04,VALID,1003.96,VALID,0,VALID,97.0546,VALID,0,VALID,25.8648,VALID,102,VALID,0.49375,
2010-06-17, 03:11:04,VALID,1004,VALID,0,VALID,97.1538,VALID,0,VALID,25.8629,VALID,102,VALID,0.317969,
2010-06-17, 03:12:04,VALID,1004.02,VALID,0,VALID,97.1767,VALID,0.100563,VALID,25.8434,VALID,102,VALID,0.187109,
2010-06-17, 03:13:04,VALID,1004.04,VALID,0,VALID,97.1462,VALID,0,VALID,25.8259,VALID,102,VALID,0.330859,
2010-06-17, 03:14:04,VALID,1004.07,VALID,0,VALID,97.0622,VALID,0,VALID,25.785,VALID,102,VALID,0.199219,
2010-06-17, 03:15:04,VALID,1004.08,VALID,0,VALID,97.0012,VALID,0.100563,VALID,25.7655,VALID,102,VALID,0,
2010-06-17, 03:16:04,VALID,1004.1,VALID,0,VALID,96.9707,VALID,0.100563,VALID,25.7655,VALID,102,VALID,0,
2010-06-17, 03:17:04,VALID,1004.08,VALID,0,VALID,97.0622,VALID,0,VALID,25.746,VALID,102,VALID,0,
2010-06-17, 03:18:04,VALID,1004.05,VALID,0,VALID,97.1691,VALID,0,VALID,25.7285,VALID,74,VALID,0.644141,
2010-06-17, 03:19:04,VALID,1004.05,VALID,0,VALID,97.2377,VALID,0.100563,VALID,25.6876,VALID,56,VALID,0.410156,
2010-06-17, 03:20:04,VALID,1004,VALID,0,VALID,97.2835,VALID,0,VALID,25.6506,VALID,56,VALID,0.586719,
2010-06-17, 03:21:04,VALID,1003.99,VALID,0,VALID,97.2606,VALID,0,VALID,25.6292,VALID,56,VALID,0.340625,
2010-06-17, 03:22:04,VALID,1003.99,VALID,0,VALID,96.9631,VALID,0,VALID,25.6292,VALID,56,VALID,0,
2010-06-17, 03:23:04,VALID,1003.94,VALID,0,VALID,96.6961,VALID,0,VALID,25.6486,VALID,56,VALID,0,
2010-06-17, 03:24:04,VALID,1003.93,VALID,0,VALID,95.6662,VALID,0,VALID,25.6681,VALID,56,VALID,0.0691406,
2010-06-17, 03:25:04,VALID,1003.93,VALID,0,VALID,95.6051,VALID,0.100563,VALID,25.6876,VALID,56,VALID,0.0597656,
2010-06-17, 03:26:04,VALID,1003.98,VALID,0,VALID,95.9866,VALID,0.100563,VALID,25.6681,VALID,56,VALID,0,
2010-06-17, 03:27:04,VALID,1003.99,VALID,0,VALID,95.6967,VALID,0,VALID,25.6681,VALID,56,VALID,0,
2010-06-17, 03:28:04,VALID,1004.01,VALID,0,VALID,95.5517,VALID,0.100563,VALID,25.6876,VALID,56,VALID,0,
2010-06-17, 03:29:04,VALID,1004.04,VALID,0,VALID,96.04,VALID,0.100563,VALID,25.6681,VALID,56,VALID,0,
2010-06-17, 03:30:04,VALID,1004.01,VALID,0,VALID,96.101,VALID,0,VALID,25.6486,VALID,56,VALID,0,
2010-06-17, 03:31:04,VALID,1003.99,VALID,0,VALID,96.4138,VALID,0,VALID,25.6311,VALID,56,VALID,0.0476562,
2010-06-17, 03:32:04,VALID,1003.9,VALID,0,VALID,96.574,VALID,0,VALID,25.5921,VALID,56,VALID,0.332031,
2010-06-17, 03:33:04,VALID,1003.9,VALID,0,VALID,96.7571,VALID,0,VALID,25.5532,VALID,56,VALID,0.355078,
2010-06-17, 03:34:04,VALID,1003.89,VALID,0,VALID,96.9402,VALID,0,VALID,25.5142,VALID,56,VALID,0,
2010-06-17, 03:35:04,VALID,1003.9,VALID,0,VALID,97.0775,VALID,0,VALID,25.4948,VALID,56,VALID,0,
2010-06-17, 03:36:04,VALID,1003.89,VALID,0,VALID,97.2606,VALID,0,VALID,25.4753,VALID,56,VALID,0,
2010-06-17, 03:37:04,VALID,1003.9,VALID,0,VALID,97.3903,VALID,0,VALID,25.4363,VALID,56,VALID,0,
2010-06-17, 03:38:04,VALID,1003.89,VALID,0,VALID,97.4818,VALID,0,VALID,25.3974,VALID,56,VALID,0,
2010-06-17, 03:39:04,VALID,1003.9,VALID,0,VALID,97.5658,VALID,0,VALID,25.376,VALID,56,VALID,0,
2010-06-17, 03:40:04,VALID,1003.9,VALID,0,VALID,97.7107,VALID,0,VALID,25.337,VALID,43,VALID,0,
2010-06-17, 03:41:04,VALID,1003.93,VALID,0,VALID,97.8175,VALID,0,VALID,25.3176,VALID,39,VALID,0,
2010-06-17, 03:42:04,VALID,1003.94,VALID,0,VALID,97.9319,VALID,0,VALID,25.3195,VALID,39,VALID,0,
2010-06-17, 03:43:04,VALID,1003.95,VALID,0,VALID,98.0464,VALID,0,VALID,25.3,VALID,39,VALID,0,
2010-06-17, 03:44:04,VALID,1003.93,VALID,0,VALID,98.1684,VALID,0,VALID,25.3195,VALID,39,VALID,0,
2010-06-17, 03:45:04,VALID,1003.91,VALID,0,VALID,98.2142,VALID,0,VALID,25.3019,VALID,39,VALID,0,
2010-06-17, 03:46:04,VALID,1003.93,VALID,0,VALID,98.321,VALID,0,VALID,25.2981,VALID,39,VALID,0,
2010-06-17, 03:47:04,VALID,1003.94,VALID,0,VALID,98.3668,VALID,0.100563,VALID,25.2981,VALID,39,VALID,0,